User: anonymous   Login
Location: Mentone
(34.5413°N, 85.5351°W)
Time: 21:41:21
(UTC-05:00)
Language:

Transit 2A Rocket - Orbit

View from above orbital plane
View from above orbital plane
View from above satellite
View from above satellite

Ground track
Ground track

The orbit data is extracted from the following two-line orbital elements,

1    47U 60007C   17203.88128958 -.00000042 +00000-0 +15861-4 0  9998
2    47 066.6663 110.5187 0228447 357.1663 002.8128 14.41926826981784
Epoch (UTC): 22 July 2017 21:09:03
Eccentricity: 0.0228447
inclination: 66.6663°
perigee height: 589 km
apogee height: 915 km
right ascension of ascending node: 110.5187°
argument of perigee: 357.1663°
revolutions per day: 14.41926826
mean anomaly at epoch: 2.8128°
orbit number at epoch: 98178

The dashed part of the orbit path shows where the satellite is in the earth's shadow,  

DLR